Regional Weather Roundup
Issued by NWS Goodland, KS

Home | Current Version | Previous Version | Graphics & Text | Print | Product List | Glossary On
Versions: 1 2 3 4 5 6 7 8 9 10 11 12 13 14 15 16 17 18 19 20 21 22 23 24 25 26 27 28 29 30 31 32 33 34 35 36 37 38 39 40 41 42 43 44 45 46 47 48 49 50
000
ASUS43 KGLD 261759
RWRGLD

GOODLAND FORECAST AREA HOURLY WEATHER ROUNDUP
NATIONAL WEATHER SERVICE GOODLAND KS
1200 PM MDT TUE JUL 26 2016

...OFFICIAL OBSERVATIONS...

CITY           SKY/WX    TMP DP  RH WIND       PRES   REMARKS
GOODLAND KS    SUNNY     80  67  64 S17       30.10F
HILL CITY KS   SUNNY     83  67  58 VRB7      30.07F
IMPERIAL NEB   SUNNY     86  64  47 S16G24    30.06F
MCCOOK NEB     SUNNY     87  65  47 S15       30.05F
AKRON CO       SUNNY     88  56  33 S9        30.11F
BURLINGTON CO  SUNNY     84  64  50 S20       30.12F
LIMON CO       NOT AVBL
$$

...UNOFFICIAL OBSERVATIONS...

CITY           SKY/WX    TMP DP  RH WIND       PRES   REMARKS
COLBY KS       SUNNY     84  70  61 S10G16    30.10F
LENORA KS        N/A     82  32  16 MISG        N/A
NORTON KS      SUNNY     84  61  45 SE12      30.07F
SHARON SPRINGS   N/A     80  71  74 S12         N/A
KIT CARSON CO    N/A     83  65  54 MISG        N/A
YUMA CO          N/A     85  65  51 S5G17       N/A
$$




USA.gov is the U.S. government's official web portal to all federal, state and local government web resources and services.